INTELSAT 22 (IS-22)     
1 38098U 12011A   19266.09462442 -.00000068  00000-0  00000+0 0  9992
2 38098   0.0253 246.4862 0002813 288.3546 292.9777  1.00272438 27393
BREEZE-M R/B            
1 38099U 12011B   19262.29141423 -.00000281  00000-0  00000+0 0  9991
2 38099  27.7198  72.2041 7805371 303.5549   4.9800  1.11834776 30609
BREEZE-M DEB [TANK]     
1 38100U 12011C   19266.26672849 -.00000051  00000-0  68556-5 0  9997
2 38100  50.7058  17.1554 5051744  83.0890 329.5439  5.43124609148198